Wind_Speed
20 20 20 20 20 20 20 20 20 20 20 20 19 20 20 19 20 20 21 21 21 21 20 20 20 20 20 20 20 20 21 21 21 21 21 21 21 20
21 21 22 21 22 22 22 22 22 21 21 21 20 21 22 21 21 21 21 22 22 22 22 21 21 21 21 21 22 22 22 22 22 22 22 22 22 22
22 23 23 23 23 23 23 23 23 23 22 22 22 22 23 22 23 22 22 23 23 22 23 23 23 23 23 23 23 23 24 24 24 24 24 23 23 23
24 24 24 24 24 24 24 24 24 23 23 23 23 22 23 23 24 24 23 23 23 24 24 24 24 25 25 25 25 25 24 24 24 24 24 24 24 24
24 24 24 24 25 25 25 25 25 25 25 25 25 24 24 23 24 24 24 24 24 25 25 25 25 25 25 25 25 25 24 24 24 24 24 24 24 24
24 24 25 26 26 26 25 26 26 26 26 26 26 26 25 24 24 25 25 25 25 25 26 25 25 26 26 25 25 25 25 25 24 24 24 24 24 25
24 25 25 26 26 26 27 27 27 27 27 27 27 27 26 26 26 25 25 25 26 26 26 26 26 26 26 26 26 26 26 26 25 25 25 25 25 26
25 26 26 26 27 27 28 28 28 28 28 28 28 28 27 27 27 26 25 25 25 26 26 26 26 26 26 26 26 27 26 26 26 26 26 26 26 26
26 27 27 27 27 28 28 29 29 29 29 28 28 29 28 28 27 27 26 26 25 25 26 26 26 26 26 27 27 27 27 27 26 26 26 26 27 27
27 28 28 28 28 29 29 29 29 29 29 30 30 29 29 29 28 27 27 27 27 26 26 26 26 27 27 27 27 27 27 27 27 27 27 26 27 27
28 28 29 29 29 30 30 29 29 29 29 30 30 30 29 29 29 28 27 27 27 27 27 27 27 27 27 26 27 27 27 27 27 27 27 26 26 26
28 29 29 29 30 31 30 30 30 29 30 30 30 30 30 30 29 29 28 28 28 28 28 28 27 26 26 26 27 27 27 27 27 27 27 26 26 26
29 29 29 29 30 30 30 30 30 30 30 30 30 31 30 31 31 30 29 29 28 28 28 27 27 27 26 26 27 27 27 27 27 27 26 26 26 26
29 29 29 29 29 30 30 30 31 30 30 30 30 30 30 30 30 30 30 29 29 28 28 28 28 27 26 26 26 26 26 26 27 27 26 26 26 25
29 29 29 29 30 30 30 30 31 30 30 30 29 29 29 30 30 30 30 30 30 29 28 28 27 27 26 26 25 25 25 26 26 26 26 25 25 26
30 29 29 30 30 30 30 30 30 30 30 30 30 29 29 29 29 29 29 29 29 29 28 28 27 27 26 25 25 25 25 26 26 25 25 25 25 26
30 30 30 30 30 31 30 30 30 30 30 30 30 29 29 28 28 28 29 30 29 29 28 28 28 27 27 26 25 25 25 25 26 26 26 26 26 26
31 31 31 30 30 30 30 30 30 30 30 29 28 28 28 28 28 28 29 29 29 29 28 28 28 27 26 26 25 24 24 24 25 25 26 26 26 26
32 32 31 31 31 31 31 30 30 30 29 29 28 28 28 28 27 28 29 29 29 29 28 28 27 27 27 27 27 26 25 24 24 24 25 25 25 26
32 32 32 30 30 30 31 30 30 30 30 29 29 29 28 28 28 27 27 28 28 28 28 28 28 27 27 27 27 27 27 26 25 25 25 25 26 26
30 30 30 30 29 29 30 29 29 29 29 29 29 30 29 29 28 28 28 28 28 29 29 28 27 27 27 27 27 26 27 27 27 26 25 25 26 26
29 29 29 29 29 28 28 28 28 28 29 29 29 30 30 30 29 28 28 28 28 29 29 29 28 27 27 27 26 26 26 26 27 26 26 26 26 26
29 28 28 28 27 28 27 27 27 27 27 28 29 29 29 29 29 29 28 28 28 28 28 28 27 28 28 28 27 27 27 26 26 26 26 26 26 26
Wind_Direction
269 270 270 270 270 272 273 274 273 270 269 270 267 266 266 266 264 263 265 265 265 265 264 264 264 263 263 263 263 262 262 262 261 262 263 263 261 262
271 270 271 271 270 271 273 274 273 271 269 268 267 268 268 268 266 263 264 265 265 265 263 263 263 263 264 265 266 265 264 263 263 263 263 263 261 262
273 271 270 271 271 272 272 273 273 271 269 269 269 268 269 268 267 266 265 265 264 264 264 262 263 264 265 266 266 265 264 264 263 262 261 259 261 264
274 272 270 269 269 270 271 272 272 271 270 270 271 269 268 268 268 268 267 266 265 265 264 264 264 265 266 266 265 265 265 264 262 261 260 260 262 264
276 273 271 269 269 270 270 270 270 270 270 271 272 271 268 268 267 267 267 266 265 264 264 264 264 265 266 266 265 264 263 263 263 261 261 262 263 263
276 274 274 272 270 270 270 270 270 270 270 270 272 272 271 269 269 269 268 267 265 263 263 264 264 265 265 266 265 263 263 264 264 263 262 264 264 265
277 276 274 274 271 270 271 271 271 270 270 269 271 272 272 269 268 269 268 266 264 263 263 264 264 264 264 264 264 264 264 263 263 263 262 263 264 266
278 278 276 274 274 272 273 273 272 271 271 271 271 271 271 269 269 269 268 265 264 263 263 263 264 265 265 266 265 265 264 263 262 262 262 262 264 266
279 279 277 276 276 275 274 274 273 272 272 272 272 270 269 268 267 267 267 266 264 264 265 266 265 266 266 265 265 264 264 263 262 262 263 263 265 266
280 279 277 277 277 277 275 275 275 273 272 272 271 270 268 268 267 267 265 265 264 264 265 267 266 266 266 265 264 264 264 263 261 261 262 263 265 266
281 280 279 278 277 277 275 274 274 273 272 271 269 269 268 266 265 265 266 265 265 266 266 267 267 266 265 266 265 264 263 262 262 261 261 263 264 265
281 281 279 278 277 276 274 273 273 272 272 271 269 268 266 265 264 264 265 264 264 265 267 267 267 265 264 265 266 265 264 263 261 261 262 263 264 265
280 281 280 279 278 277 274 272 272 272 271 271 269 267 265 264 263 263 263 264 264 265 266 266 265 265 265 264 265 265 263 261 260 261 262 264 264 265
280 280 280 279 278 277 274 273 273 273 271 271 271 269 265 263 262 262 263 264 264 264 265 265 265 264 265 264 263 265 263 261 260 260 261 263 264 265
281 280 278 278 277 277 275 273 273 273 271 270 270 270 267 265 262 261 261 262 263 264 264 264 265 264 265 265 264 264 263 261 260 259 259 260 262 263
280 280 279 277 276 276 275 274 273 272 271 270 270 268 266 266 263 262 261 261 262 262 263 263 264 265 266 265 264 263 263 262 260 259 259 261 261 261
280 280 280 279 279 276 273 272 272 272 270 270 269 267 266 264 262 262 262 262 261 262 262 263 263 265 263 261 260 261 261 261 261 260 260 260 260 262
281 281 280 279 279 277 274 272 271 270 268 267 266 266 265 263 262 262 262 261 260 261 262 262 262 262 261 262 262 262 263 263 262 262 261 261 261 261
281 282 280 279 280 277 274 272 271 269 267 266 265 264 264 263 261 261 260 260 258 259 260 262 262 261 260 260 261 262 263 263 262 264 263 262 262 262
281 281 279 279 279 277 274 271 269 268 267 265 263 264 264 262 260 260 259 259 259 258 259 261 262 261 261 261 261 262 263 263 262 263 265 264 264 263
281 280 279 278 277 276 274 271 268 267 266 265 263 261 262 262 260 259 259 259 260 259 259 260 261 260 260 261 262 262 263 264 263 262 263 264 265 266
282 280 279 279 278 276 274 271 269 268 267 265 263 262 260 261 261 260 259 259 258 258 258 259 259 258 259 260 262 263 263 262 263 263 263 265 266 265
281 281 280 279 277 276 274 271 270 269 268 266 264 261 259 259 259 259 258 258 258 258 257 259 260 259 260 260 261 261 262 262 261 261 263 265 267 265
Height
5786 5787 5787 5787 5787 5787 5788 5788 5788 5788 5789 5789 5788 5789 5789 5790 5790 5791 5792 5792 5793 5794 5795 5796 5796 5797 5798 5799 5800 5801 5802 5803 5804 5805 5805 5806 5807 5808
5781 5781 5782 5782 5782 5782 5782 5782 5782 5783 5783 5783 5783 5783 5783 5783 5784 5784 5785 5786 5787 5788 5789 5790 5791 5792 5793 5793 5794 5795 5796 5797 5797 5798 5799 5800 5800 5801
5775 5775 5776 5776 5776 5776 5776 5776 5776 5776 5777 5777 5777 5777 5777 5777 5778 5778 5779 5780 5780 5781 5782 5783 5784 5785 5786 5787 5788 5788 5789 5790 5791 5791 5792 5793 5794 5795
5768 5768 5769 5769 5769 5770 5770 5770 5770 5770 5771 5771 5771 5771 5770 5771 5771 5772 5772 5773 5774 5774 5775 5776 5777 5778 5779 5780 5781 5781 5782 5783 5783 5784 5785 5786 5787 5787
5761 5762 5762 5762 5762 5763 5763 5763 5763 5763 5763 5764 5764 5764 5764 5764 5764 5765 5765 5766 5766 5767 5768 5769 5770 5770 5771 5772 5773 5774 5775 5775 5776 5777 5778 5778 5779 5780
5755 5755 5755 5755 5755 5755 5756 5756 5756 5756 5756 5757 5757 5756 5756 5756 5757 5757 5758 5758 5759 5759 5760 5761 5762 5762 5763 5764 5765 5766 5767 5767 5768 5769 5770 5771 5771 5772
5748 5747 5747 5747 5747 5747 5748 5748 5748 5748 5749 5749 5749 5749 5748 5749 5749 5749 5749 5750 5750 5751 5752 5753 5754 5755 5755 5756 5756 5757 5758 5759 5760 5761 5762 5763 5763 5764
5740 5740 5739 5739 5739 5739 5739 5739 5740 5740 5740 5741 5741 5741 5740 5740 5741 5741 5741 5742 5743 5744 5744 5745 5746 5746 5747 5748 5748 5749 5749 5750 5751 5752 5753 5754 5755 5756
5733 5732 5732 5731 5731 5731 5731 5731 5731 5731 5731 5732 5732 5732 5732 5732 5733 5734 5734 5734 5735 5735 5736 5737 5737 5738 5738 5739 5739 5740 5740 5741 5743 5743 5744 5745 5746 5747
5724 5724 5723 5723 5722 5722 5722 5722 5722 5722 5722 5722 5723 5723 5723 5723 5724 5725 5725 5726 5726 5727 5727 5728 5729 5729 5729 5730 5730 5731 5731 5732 5734 5734 5736 5737 5737 5738
5716 5715 5714 5714 5713 5713 5713 5713 5713 5713 5713 5713 5713 5714 5714 5714 5715 5716 5717 5717 5718 5719 5719 5720 5720 5720 5721 5721 5721 5722 5723 5724 5725 5726 5727 5728 5728 5729
5707 5706 5705 5705 5704 5703 5703 5703 5703 5703 5703 5703 5703 5704 5704 5705 5706 5707 5708 5708 5709 5710 5711 5711 5711 5712 5713 5713 5713 5713 5714 5715 5716 5717 5719 5719 5720 5720
5698 5697 5696 5695 5695 5694 5694 5694 5693 5693 5693 5693 5693 5694 5694 5695 5696 5697 5698 5699 5700 5701 5702 5702 5703 5703 5704 5705 5705 5705 5706 5707 5708 5709 5710 5711 5711 5712
5689 5688 5687 5686 5685 5685 5684 5684 5683 5683 5683 5683 5683 5684 5685 5686 5686 5687 5688 5689 5691 5692 5692 5693 5694 5694 5695 5696 5697 5697 5697 5698 5699 5701 5701 5702 5703 5703
5680 5678 5677 5677 5676 5675 5674 5674 5673 5673 5673 5673 5674 5674 5675 5676 5677 5678 5679 5680 5681 5682 5683 5684 5685 5686 5686 5687 5688 5689 5689 5690 5691 5692 5693 5694 5695 5695
5670 5669 5668 5667 5666 5665 5665 5664 5664 5664 5664 5664 5664 5665 5665 5666 5667 5668 5669 5671 5672 5673 5674 5675 5676 5677 5678 5678 5679 5680 5681 5682 5683 5684 5685 5685 5686 5687
5660 5659 5658 5657 5656 5656 5655 5655 5654 5654 5654 5654 5654 5655 5656 5657 5657 5659 5660 5661 5663 5664 5666 5667 5667 5668 5669 5670 5671 5672 5672 5673 5674 5675 5676 5677 5677 5678
5650 5649 5648 5647 5646 5646 5645 5645 5645 5644 5644 5645 5645 5646 5647 5647 5648 5649 5650 5652 5653 5655 5656 5658 5659 5659 5660 5661 5662 5663 5664 5665 5665 5666 5667 5668 5669 5669
5640 5639 5638 5637 5636 5635 5635 5635 5635 5635 5635 5635 5636 5637 5637 5638 5639 5640 5641 5643 5644 5646 5647 5648 5650 5650 5652 5653 5654 5655 5655 5656 5657 5658 5658 5659 5660 5660
5629 5628 5627 5627 5626 5625 5625 5625 5625 5625 5625 5625 5626 5627 5628 5629 5630 5631 5632 5633 5635 5636 5638 5639 5640 5641 5643 5645 5646 5646 5647 5647 5648 5649 5650 5650 5651 5651
5619 5618 5617 5616 5616 5615 5615 5614 5614 5615 5615 5616 5616 5617 5618 5619 5620 5622 5623 5624 5625 5627 5628 5630 5631 5633 5634 5635 5636 5637 5638 5638 5639 5640 5641 5641 5642 5643
5609 5608 5607 5606 5606 5605 5605 5604 5604 5605 5605 5606 5606 5607 5608 5610 5611 5612 5613 5614 5616 5617 5619 5621 5622 5623 5624 5626 5627 5628 5629 5630 5630 5630 5631 5632 5632 5633
5600 5598 5598 5597 5596 5596 5595 5595 5595 5595 5595 5596 5597 5597 5599 5600 5601 5602 5603 5605 5606 5607 5609 5611 5612 5613 5615 5616 5618 5619 5620 5621 5621 5622 5623 5623 5624 5624